Weather past 2 weeks in Bantam, Cocos Islands

Now
81 °F

Warm.


Feels Like: 86 °F
Forecast: 78 / 85 °F
Wind: 9 mph from East

Location: Cocos Island Airport

Current Time: Apr 27, 2015 at 2:33:37 AM

Latest Report: Apr 27, 2015 at 1:30 AM


Visibility: N/A

Pressure: 29.80 "Hg

Humidity: 84%

Dew point: 75 °F

Location of BantamLocation

Historic Weather in Bantam — Graph

°F

Bantam temperature yesterday

Maximum temperature yesterday: 86 °F (at 12:00 PM)
Minimum temperature yesterday: 79 °F (at 4:30 AM)
Average temperature yesterday: 82 °F

Past Weeks' High & Low Weather Summary

 TemperatureHumidityPressure
High88 °F (Apr 14, 10:00 AM)100% (Apr 15, 4:00 AM)29.89 "Hg (Apr 15, 4:00 AM)
Low75 °F (Apr 23, 5:00 AM)62% (Apr 13, 7:30 PM)29.65 "Hg (Apr 14, 2:30 PM)
Average82 °F80%29.80 "Hg
* Reported Apr 12 1:30 AM — Apr 27 1:30 AM, Bantam, Weather by CustomWeather, © 2015

Note: Actual official high and low records may vary slightly from our data, if they occured in-between our weather recording intervals... More about our weather records

Advertising

Bantam weather history for previous 24 hours

 ConditionsComfort  
Time TempWeatherWind HumidityBarometerVisibility
1:30 AM
Mon, Apr 27
81 °FWarm.9 mph84%29.80 "HgN/A
1:00 AM81 °FWarm.10 mph84%29.83 "HgN/A
12:30 AM81 °FWarm.9 mph84%29.83 "HgN/A
11:30 PM
Sun, Apr 26
82 °FWarm.10 mph79%29.86 "HgN/A
11:00 PM81 °FWarm.9 mph84%29.86 "HgN/A
10:30 PM82 °FWarm.9 mph79%29.86 "HgN/A
10:00 PM81 °FWarm.10 mph84%29.86 "HgN/A
9:30 PM82 °FWarm.9 mph79%29.86 "HgN/A
9:00 PM81 °FWarm.9 mph84%29.86 "HgN/A
8:30 PM81 °FWarm.13 mph84%29.86 "HgN/A
8:00 PM82 °FOvercast.9 mph79%29.86 "HgN/A
7:30 PM82 °FPassing clouds.8 mph79%29.83 "HgN/A
7:00 PM82 °FClear.8 mph79%29.83 "HgN/A
6:30 PM82 °FScattered clouds.8 mph79%29.83 "HgN/A
6:00 PM82 °FSunny.9 mph79%29.80 "HgN/A
5:30 PM82 °FScattered clouds.10 mph79%29.80 "HgN/A
5:00 PM84 °FScattered clouds.10 mph74%29.80 "HgN/A
4:30 PM84 °FSunny.12 mph79%29.80 "HgN/A
4:00 PM84 °FPassing clouds.12 mph79%29.80 "HgN/A
3:30 PM84 °FPassing clouds.9 mph74%29.77 "HgN/A
3:00 PM86 °FPassing clouds.9 mph75%29.80 "HgN/A
2:30 PM86 °FPassing clouds.9 mph75%29.80 "HgN/A
2:00 PM86 °FPassing clouds.9 mph70%29.80 "HgN/A
1:30 PM86 °FPassing clouds.10 mph70%29.80 "HgN/A
1:00 PM86 °FPassing clouds.10 mph70%29.80 "HgN/A
12:30 PM86 °FPassing clouds.10 mph70%29.83 "HgN/A
12:00 PM86 °FPassing clouds.10 mph70%29.83 "HgN/A
11:30 AM84 °FPassing clouds.10 mph74%29.83 "HgN/A
11:00 AM82 °FScattered showers. Scattered clouds.5 mph84%29.86 "HgN/A
10:30 AM82 °FRain showers. Scattered clouds.13 mph79%29.86 "Hg4 mi
10:00 AM84 °FScattered showers. Scattered clouds.8 mph74%29.86 "HgN/A
9:30 AM84 °FScattered showers. Passing clouds.12 mph74%29.86 "HgN/A
9:00 AM84 °FScattered showers. Passing clouds.12 mph74%29.86 "HgN/A
8:30 AM82 °FPassing clouds.10 mph79%29.86 "HgN/A
8:00 AM82 °FPassing clouds.9 mph79%29.86 "HgN/A
7:30 AM82 °FPassing clouds.7 mph79%29.86 "HgN/A
7:00 AM81 °FPassing clouds.6 mph84%29.83 "HgN/A
6:30 AM79 °FPassing clouds.5 mph89%29.83 "HgN/A
6:00 AM79 °FPassing clouds.5 mph89%29.83 "HgN/A
5:30 AM79 °FPassing clouds.6 mph89%29.80 "HgN/A
5:00 AM79 °FWarm.14 mph84%29.80 "HgN/A
4:30 AM79 °FWarm.7 mph89%29.80 "HgN/A
3:30 AM81 °FWarm.6 mph84%29.80 "HgN/A
3:00 AM81 °FWarm.7 mph84%29.80 "HgN/A
2:30 AM81 °FWarm.6 mph84%29.80 "HgN/A
2:00 AM81 °FWarm.7 mph84%29.80 "HgN/A
Weather by CustomWeather, © 2015

See weather overviewHow to use our weather pages